Temperature
16 17 17 17 17 17 17 17 16 16 16 16 16 16 16 16 16 16 16 16 16 16 16 16 16 15 15 15 16 15 15 15 15 15 15 15 15 15 15 15 15 15 15
17 17 17 17 16 16 16 16 16 16 16 16 16 16 16 16 16 16 16 15 15 15 15 15 15 15 15 15 15 15 15 15 15 15 15 15 15 15 15 15 15 15 15
17 17 16 16 16 16 16 16 16 16 16 16 16 16 16 16 16 16 15 15 15 15 15 15 15 15 15 15 15 15 15 15 15 15 15 15 15 15 15 15 15 15 15
16 16 16 16 16 16 16 16 16 16 16 16 15 15 15 15 15 15 15 15 15 15 15 15 15 15 15 15 15 15 15 15 15 14 14 14 14 14 15 15 15 15 15
16 16 16 16 16 16 16 16 16 16 15 15 15 15 15 15 15 15 15 15 15 15 15 15 15 15 15 15 15 15 15 15 14 14 14 14 14 14 15 15 15 15 15
15 16 16 16 16 16 16 16 15 15 15 15 15 15 15 15 15 15 15 15 15 15 15 15 15 15 15 15 15 15 15 14 14 14 14 14 14 14 14 15 15 15 15
15 15 15 15 15 15 15 15 15 15 15 15 15 15 15 15 15 15 15 15 15 15 15 15 15 15 15 15 15 15 15 14 14 14 14 14 14 14 14 14 14 14 14
15 15 15 15 15 15 15 15 15 15 15 15 15 15 15 15 15 15 15 15 15 15 15 15 15 15 15 15 15 15 14 14 14 14 13 13 14 14 14 14 14 14 14
14 15 15 15 15 15 15 15 15 15 15 15 15 15 15 15 15 15 15 15 15 15 15 15 15 15 15 15 15 14 14 14 14 14 13 13 13 14 14 14 14 14 14
14 14 14 14 14 14 14 14 14 15 15 15 14 14 14 14 14 14 14 14 14 14 14 14 14 14 14 14 14 14 14 14 14 13 13 13 13 13 13 14 14 14 14
14 14 14 14 14 14 14 14 14 14 14 14 14 14 14 14 14 14 14 14 14 14 14 14 14 14 14 14 14 14 14 13 13 13 13 13 13 13 13 13 13 13 13
13 13 14 14 14 14 14 14 14 14 14 14 14 14 14 13 13 13 14 14 14 14 14 14 14 14 13 13 13 13 13 13 13 13 13 13 13 13 13 13 13 13 13
13 13 13 13 13 14 14 13 13 14 14 14 14 14 13 13 13 13 13 13 13 13 13 13 13 13 13 13 13 13 13 13 13 13 13 13 13 13 13 13 13 13 13
13 13 13 13 13 13 13 13 13 13 13 13 13 14 13 13 13 13 13 13 13 13 13 13 13 13 13 12 12 12 12 12 12 12 12 12 12 12 12 13 13 13 13
12 13 13 13 13 13 13 13 13 13 13 13 13 13 13 13 13 13 13 13 13 13 13 13 13 12 12 12 12 12 12 12 12 12 12 12 12 12 12 12 12 12 12
12 12 12 12 13 13 13 13 13 13 13 13 13 13 13 13 13 13 13 13 13 13 13 12 12 12 12 12 12 12 12 12 12 12 12 12 12 12 11 11 12 12 12
12 12 12 12 12 12 12 12 12 12 12 13 13 13 13 13 13 13 13 12 13 13 13 12 12 12 12 12 12 12 12 12 11 11 11 11 11 11 11 11 11 11 11
12 12 12 12 12 12 12 12 12 12 12 12 12 12 12 13 13 13 12 12 12 12 12 12 12 12 12 12 11 11 11 11 11 11 11 11 11 11 11 11 11 11 11
11 12 12 12 12 12 12 12 12 12 12 12 12 12 12 12 12 12 12 12 12 12 12 12 12 12 11 11 11 11 11 11 11 10 10 10 10 10 10 10 10 10 10
11 11 11 12 12 12 12 12 12 12 11 11 12 12 12 12 12 12 12 12 12 12 12 12 11 11 11 11 11 11 11 11 10 10 10 10 10 10 10 10 10 10 10
11 11 11 11 11 11 11 11 11 11 11 11 11 11 12 12 11 12 11 11 11 11 11 11 11 11 11 10 10 10 10 10 10 10 10 10 10 9 9 9 9 9 9
11 11 11 11 11 11 11 11 11 11 11 11 11 11 11 11 11 11 11 11 11 11 11 11 11 10 10 10 9 9 9 9 10 10 9 9 9 9 9 9 9 9 9
11 10 10 10 11 11 11 11 11 11 11 11 11 11 10 11 11 11 10 10 10 10 10 10 10 10 10 9 9 8 8 8 8 9 9 9 9 9 8 8 8 8 8
10 10 10 10 10 10 10 10 11 11 10 10 10 10 10 10 10 10 10 10 10 10 10 10 10 9 9 9 9 8 8 8 7 8 8 8 8 8 8 8 8 8 8
10 10 10 10 10 10 10 10 10 10 10 10 10 10 10 10 10 9 9 9 9 9 9 9 9 9 9 9 8 8 8 7 7 7 7 8 8 8 8 8 8 7 7
10 10 10 10 10 10 10 10 10 10 10 10 9 9 9 9 9 9 9 9 9 9 9 9 9 9 8 8 8 8 7 7 7 6 6 6 7 7 7 7 7 7 7
Wind_Speed
8 12 13 11 10 9 9 9 8 8 8 8 7 7 7 7 7 7 7 7 7 7 8 8 8 8 7 7 8 8 7 7 7 7 7 6 6 6 6 7 7 7 8
10 13 14 12 10 10 9 9 8 8 8 7 7 7 7 6 6 6 6 6 6 7 7 7 7 7 7 7 7 6 6 5 4 4 4 4 4 5 5 6 6 6 7
11 13 13 12 11 10 9 8 8 8 7 7 6 6 6 5 5 5 5 6 6 6 6 6 6 6 6 5 5 5 4 3 1 1 1 1 4 5 5 5 5 5 5
10 12 12 13 12 11 9 9 8 8 7 7 6 6 6 5 5 5 5 5 6 6 5 5 5 5 5 4 4 3 2 2 2 4 4 2 4 6 5 4 4 3 3
9 11 13 13 12 11 9 9 8 7 7 7 6 5 5 5 5 5 5 6 6 5 5 5 4 4 4 3 3 2 2 3 5 6 3 2 5 6 5 3 3 2 2
9 11 12 13 12 11 10 9 8 8 7 6 6 5 5 5 6 5 5 5 5 4 4 4 4 3 3 2 1 1 3 5 7 6 1 3 5 5 4 3 2 2 2
8 10 11 12 12 12 11 9 9 8 7 6 6 5 5 5 5 5 5 4 4 4 3 3 3 2 2 2 2 2 4 7 7 5 1 4 5 4 3 2 1 1 2
7 9 9 11 12 11 10 9 8 8 7 7 6 5 5 5 5 5 5 4 4 3 3 2 2 2 2 2 2 3 5 7 7 5 2 4 4 3 2 2 2 2 2
7 8 8 8 10 10 10 9 8 8 7 7 6 6 6 5 5 5 5 4 4 3 2 2 1 1 1 1 2 4 6 8 9 5 2 3 4 2 1 1 2 3 3
6 6 6 7 8 9 9 8 7 7 7 6 6 5 5 5 5 5 5 4 3 2 1 1 0 1 2 3 4 5 7 8 8 4 1 3 3 1 1 2 3 3 3
5 4 4 5 5 7 8 7 7 7 6 6 5 5 5 4 4 5 5 4 2 1 0 1 2 3 4 5 6 7 6 6 5 1 3 3 3 1 1 3 3 4 4
4 4 3 4 4 5 5 6 5 5 5 4 3 3 2 3 4 4 4 3 1 1 2 3 4 4 4 4 4 5 5 6 3 2 3 4 2 1 1 3 4 4 4
4 4 4 4 4 4 3 4 3 3 3 2 3 2 2 3 3 3 2 2 1 1 2 3 4 4 3 2 2 2 4 4 2 2 3 3 2 1 2 3 3 3 4
5 4 4 4 3 3 4 3 3 3 3 4 4 4 3 3 3 3 2 2 2 2 3 3 3 3 3 3 2 2 3 2 1 1 3 3 2 0 1 2 3 4 4
5 4 4 4 4 4 4 2 3 3 3 5 5 4 4 2 2 3 2 2 3 3 3 3 4 3 2 3 3 3 2 2 2 1 2 3 2 0 1 2 3 4 4
4 4 4 4 4 4 3 3 2 3 4 4 4 5 5 5 4 3 2 2 3 3 4 4 4 3 2 2 2 2 3 3 2 3 2 1 1 1 1 2 3 3 4
4 4 4 4 4 4 3 3 3 3 4 4 4 5 6 5 4 3 2 2 3 4 4 4 4 3 2 2 2 2 2 3 2 2 2 1 1 1 1 2 3 4 4
5 4 4 4 5 4 3 3 3 4 4 4 5 5 5 5 4 4 2 2 4 5 4 2 2 3 3 2 2 2 2 2 2 2 2 2 2 1 1 2 2 3 4
5 5 5 5 4 4 3 3 4 5 4 4 5 4 4 5 5 5 3 3 4 3 2 2 3 2 3 3 3 2 2 2 1 1 2 3 3 3 2 2 2 2 3
4 4 4 4 4 4 3 3 3 3 2 3 4 4 4 5 6 5 3 3 4 2 2 2 2 2 2 3 3 3 2 2 1 0 1 2 3 3 2 2 2 2 3
5 4 3 4 3 3 2 2 2 2 1 1 2 3 3 4 4 4 3 2 3 2 2 2 2 2 2 3 2 2 3 2 1 1 1 1 1 2 2 2 2 2 2
5 4 3 3 3 3 2 1 1 3 1 2 2 2 1 2 3 3 3 2 2 2 3 3 2 2 2 3 2 1 2 2 2 1 1 0 0 1 2 2 2 2 2
5 4 4 3 3 3 3 2 2 3 1 1 1 1 0 1 2 3 2 2 2 2 2 2 2 2 2 2 2 1 1 2 2 2 1 0 1 1 1 1 2 2 2
5 4 4 3 3 3 3 3 3 2 2 2 1 2 1 1 2 2 1 1 1 1 2 2 2 1 1 1 2 1 1 1 1 2 2 1 1 2 1 1 1 2 3
5 4 4 3 3 3 3 3 2 2 2 2 1 1 1 1 2 2 0 0 0 0 1 2 2 2 1 1 1 1 2 2 2 2 4 3 3 2 1 1 0 1 2
5 4 4 3 2 3 3 2 2 2 2 2 1 1 1 1 1 2 2 1 1 0 0 1 1 1 1 2 1 1 1 1 2 2 3 4 4 3 3 2 1 1 1
Wind_Direction
116 124 130 126 121 120 116 112 110 113 114 113 108 101 98 98 95 89 91 90 89 91 90 86 82 79 77 73 73 74 73 71 71 72 74 73 73 71 65 57 59 70 75
120 127 131 128 125 121 120 116 115 113 112 112 110 105 99 102 102 95 93 91 88 86 85 83 80 79 76 73 72 74 74 76 76 76 80 81 90 88 71 60 62 64 73
118 127 132 129 126 124 121 121 121 120 116 112 112 109 105 101 106 107 102 100 93 86 83 81 79 77 76 74 72 71 68 67 61 354 286 191 135 116 94 74 66 68 70
117 127 132 131 130 126 125 124 124 122 118 113 112 115 110 105 105 108 101 101 97 90 84 81 78 75 75 71 66 61 45 7 315 298 279 159 115 111 100 81 62 60 58
112 118 129 134 131 128 126 125 125 124 120 116 109 113 111 105 104 101 95 96 94 88 81 78 75 72 71 63 56 43 4 326 315 294 283 91 95 112 101 79 56 51 44
111 113 127 134 134 131 129 127 125 123 121 116 111 104 107 101 95 93 92 94 91 88 83 75 69 63 58 52 36 355 325 318 308 291 298 94 98 109 104 79 46 27 22
108 109 127 135 138 135 133 131 126 122 120 114 113 108 104 105 100 94 91 93 93 89 81 73 67 54 49 37 9 326 311 309 300 295 9 83 93 98 96 69 21 353 353
105 108 120 135 137 135 132 131 127 123 120 114 112 110 103 104 104 100 92 88 86 88 81 71 60 45 36 16 348 330 316 309 307 311 34 89 98 98 83 42 353 333 320
104 110 113 124 134 134 129 128 128 125 122 122 119 116 108 105 112 108 96 86 75 76 75 64 51 23 346 319 304 305 303 300 301 303 340 86 97 94 49 359 341 327 323
106 111 116 121 132 131 125 127 128 127 131 136 141 142 141 133 135 128 107 95 81 73 82 71 339 302 289 276 275 284 290 293 291 288 32 87 99 86 340 323 318 315 314
101 107 112 114 117 125 131 136 136 140 147 150 154 161 167 161 140 133 119 115 105 83 214 242 265 266 265 263 262 269 282 283 286 340 76 97 103 70 346 321 320 309 308
107 100 110 111 109 118 135 140 149 148 153 160 146 164 178 98 86 106 135 142 150 262 279 259 267 269 265 264 268 266 277 287 305 44 90 102 100 67 333 318 317 310 310
114 94 82 90 101 107 113 124 116 114 124 105 97 100 96 90 82 86 133 155 214 276 322 304 279 272 283 281 273 268 287 304 347 31 102 113 106 34 334 319 320 311 305
108 99 89 85 86 82 82 96 98 91 93 73 59 49 50 59 62 54 55 42 29 14 352 334 305 303 322 330 320 301 312 315 317 85 121 131 136 115 313 313 319 310 305
110 102 100 92 91 82 73 75 86 76 76 71 54 47 46 53 66 47 36 34 33 10 360 336 326 328 335 336 329 333 325 317 326 56 104 138 154 207 298 311 315 315 308
114 108 100 96 91 86 79 69 71 79 80 78 63 46 46 50 46 45 36 23 23 7 351 341 340 340 324 323 316 323 329 331 2 37 84 132 151 199 286 322 323 320 319
122 112 110 107 93 86 82 69 72 83 84 75 62 51 46 49 42 47 40 20 16 5 1 356 346 348 322 320 320 325 345 348 2 24 36 83 146 220 276 304 317 324 324
112 109 103 102 94 88 83 73 71 67 70 70 61 55 43 38 38 46 51 24 6 9 8 355 347 356 344 342 335 326 332 339 342 14 25 45 49 32 355 322 325 335 333
106 110 101 90 89 89 86 78 71 64 63 67 60 56 47 39 32 48 51 17 8 18 17 356 6 8 353 342 322 313 307 300 296 21 45 55 49 49 40 17 4 350 344
109 107 107 99 94 97 98 90 84 79 67 73 66 51 42 43 34 41 48 22 8 29 23 8 1 5 352 327 320 319 294 263 236 188 66 60 51 47 48 43 5 335 344
111 109 113 108 103 103 105 111 111 114 126 106 89 67 38 47 40 43 39 25 20 39 21 8 10 1 351 348 351 326 304 260 169 144 99 68 50 47 44 49 25 12 357
128 128 126 119 119 113 105 106 118 111 134 129 107 86 40 50 49 46 36 26 28 29 25 20 15 356 349 14 4 327 325 326 335 289 117 133 31 42 55 39 30 15 21
144 155 150 142 139 134 125 110 97 91 79 99 126 115 311 74 75 54 26 21 24 30 34 20 13 20 343 340 15 13 349 303 317 295 272 221 17 344 335 52 36 354 336
155 150 146 145 144 143 134 133 141 147 157 174 170 155 175 151 123 85 23 15 25 24 17 4 27 4 359 314 325 352 306 295 297 304 301 306 320 303 309 341 7 353 338
141 142 146 145 148 145 144 149 149 146 145 123 108 143 161 162 160 152 170 340 7 24 25 4 350 344 338 302 306 316 317 313 276 269 287 300 305 280 278 276 278 345 327
132 137 148 147 161 159 160 170 169 152 135 125 113 139 188 179 169 181 191 210 231 227 33 289 294 299 279 280 287 280 274 285 300 291 287 293 290 283 280 250 236 251 307
Height
1515 1516 1518 1520 1522 1524 1525 1526 1527 1528 1529 1530 1531 1532 1532 1533 1533 1534 1535 1535 1536 1536 1537 1537 1537 1538 1538 1538 1538 1538 1539 1539 1539 1539 1539 1540 1540 1540 1540 1540 1540 1540 1540
1513 1516 1518 1520 1522 1523 1525 1526 1528 1529 1530 1530 1531 1532 1533 1533 1534 1534 1535 1536 1536 1537 1537 1538 1538 1538 1538 1539 1539 1539 1539 1539 1540 1540 1540 1540 1540 1541 1541 1541 1541 1541 1541
1513 1515 1518 1520 1522 1523 1525 1526 1528 1529 1530 1531 1532 1532 1533 1534 1534 1535 1535 1536 1536 1537 1537 1538 1538 1538 1539 1539 1539 1539 1540 1540 1540 1540 1541 1541 1541 1541 1541 1541 1541 1541 1541
1513 1515 1517 1519 1521 1523 1525 1526 1527 1529 1530 1531 1532 1532 1533 1534 1534 1535 1536 1536 1537 1537 1537 1538 1538 1538 1539 1539 1539 1539 1540 1540 1541 1541 1541 1541 1541 1541 1542 1542 1541 1541 1541
1513 1515 1517 1519 1521 1523 1525 1526 1527 1529 1530 1531 1532 1533 1533 1534 1535 1535 1536 1536 1536 1537 1537 1538 1538 1538 1538 1539 1539 1539 1540 1540 1541 1541 1541 1542 1542 1541 1541 1541 1541 1541 1541
1513 1514 1517 1519 1520 1522 1524 1526 1527 1528 1530 1531 1532 1532 1533 1534 1534 1535 1535 1536 1536 1537 1537 1537 1537 1538 1538 1538 1538 1539 1539 1540 1540 1541 1541 1541 1541 1541 1541 1541 1541 1541 1541
1512 1514 1516 1518 1520 1522 1524 1526 1527 1528 1529 1530 1531 1532 1533 1534 1534 1535 1535 1535 1536 1536 1536 1537 1537 1537 1537 1537 1538 1538 1539 1539 1540 1540 1541 1540 1540 1540 1540 1540 1540 1540 1540
1512 1513 1516 1518 1520 1522 1523 1525 1527 1528 1529 1530 1531 1532 1532 1533 1534 1534 1534 1535 1535 1535 1536 1536 1536 1536 1536 1537 1537 1537 1538 1538 1539 1539 1539 1539 1539 1539 1539 1539 1539 1539 1539
1512 1513 1515 1517 1519 1521 1523 1525 1526 1527 1528 1529 1530 1531 1532 1532 1533 1533 1534 1534 1534 1535 1535 1535 1535 1535 1536 1536 1536 1536 1537 1537 1537 1538 1538 1538 1538 1538 1538 1538 1538 1538 1538
1512 1513 1514 1516 1518 1520 1522 1524 1526 1527 1528 1529 1530 1530 1531 1532 1532 1533 1533 1533 1534 1534 1534 1534 1534 1534 1534 1535 1535 1535 1535 1536 1536 1537 1537 1537 1537 1537 1537 1537 1536 1536 1536
1511 1512 1514 1516 1517 1520 1521 1523 1525 1526 1527 1528 1529 1530 1530 1531 1531 1532 1532 1532 1533 1533 1533 1533 1533 1533 1533 1533 1534 1534 1534 1535 1535 1535 1535 1535 1535 1535 1535 1535 1535 1534 1534
1510 1512 1513 1515 1517 1518 1521 1522 1523 1525 1526 1527 1528 1529 1529 1530 1530 1531 1531 1531 1532 1532 1532 1532 1532 1532 1532 1532 1533 1533 1533 1533 1533 1534 1533 1533 1533 1533 1533 1533 1533 1533 1532
1509 1511 1512 1514 1516 1518 1519 1521 1523 1524 1525 1526 1527 1528 1528 1528 1529 1529 1530 1530 1530 1530 1531 1531 1531 1531 1531 1532 1532 1532 1532 1532 1532 1532 1532 1532 1531 1531 1531 1531 1531 1530 1530
1508 1510 1512 1513 1515 1517 1518 1520 1521 1523 1524 1525 1526 1526 1527 1527 1527 1528 1528 1529 1529 1529 1529 1529 1530 1530 1530 1530 1530 1530 1530 1530 1530 1530 1530 1530 1529 1529 1529 1528 1528 1528 1528
1507 1509 1511 1512 1514 1515 1517 1518 1520 1521 1522 1523 1524 1525 1525 1525 1525 1526 1527 1527 1527 1528 1528 1528 1528 1528 1528 1528 1529 1529 1529 1529 1528 1528 1528 1528 1527 1527 1527 1526 1526 1526 1525
1506 1508 1510 1511 1513 1514 1515 1517 1518 1519 1520 1521 1522 1523 1523 1524 1524 1525 1525 1526 1526 1526 1526 1527 1526 1527 1527 1527 1527 1527 1527 1527 1527 1526 1526 1526 1525 1525 1524 1524 1524 1523 1523
1505 1507 1509 1510 1511 1512 1514 1516 1517 1517 1519 1520 1521 1522 1522 1523 1523 1523 1524 1524 1524 1525 1525 1525 1525 1525 1525 1525 1525 1525 1525 1525 1524 1524 1524 1524 1523 1523 1522 1522 1521 1521 1520
1504 1506 1507 1509 1510 1511 1513 1514 1515 1516 1517 1518 1519 1520 1520 1521 1521 1521 1522 1522 1523 1523 1523 1523 1523 1523 1523 1523 1523 1523 1523 1523 1522 1522 1522 1521 1521 1521 1520 1520 1519 1519 1518
1504 1505 1506 1508 1509 1510 1511 1512 1513 1514 1515 1516 1517 1518 1519 1519 1519 1520 1520 1521 1521 1521 1521 1521 1521 1522 1521 1521 1521 1520 1520 1520 1520 1520 1520 1519 1519 1519 1518 1518 1517 1516 1516
1504 1505 1506 1507 1508 1509 1510 1511 1511 1512 1514 1515 1516 1517 1517 1517 1517 1518 1518 1519 1519 1519 1519 1520 1520 1520 1519 1519 1518 1518 1518 1518 1518 1518 1518 1518 1517 1517 1516 1515 1515 1514 1513
1503 1504 1505 1505 1506 1507 1508 1509 1510 1511 1513 1514 1515 1515 1515 1516 1516 1516 1517 1517 1517 1517 1517 1517 1517 1518 1517 1517 1516 1516 1516 1516 1516 1516 1516 1516 1515 1514 1514 1513 1512 1511 1511
1502 1504 1504 1504 1505 1506 1507 1508 1509 1510 1512 1513 1513 1514 1514 1514 1514 1515 1516 1516 1515 1515 1516 1515 1515 1515 1515 1515 1515 1514 1514 1515 1514 1514 1514 1514 1513 1512 1511 1511 1510 1509 1508
1501 1503 1503 1504 1505 1506 1506 1507 1508 1509 1510 1510 1511 1512 1512 1512 1512 1513 1514 1514 1514 1514 1514 1514 1514 1513 1514 1514 1514 1514 1514 1513 1512 1512 1512 1511 1511 1510 1509 1508 1507 1506 1505
1500 1501 1502 1503 1504 1504 1505 1506 1507 1508 1508 1508 1509 1510 1510 1510 1510 1511 1512 1512 1512 1512 1512 1511 1511 1511 1511 1511 1511 1512 1512 1512 1511 1509 1509 1509 1508 1507 1506 1505 1504 1503 1502
1499 1500 1501 1502 1503 1503 1504 1505 1505 1506 1506 1506 1507 1507 1508 1508 1508 1510 1510 1510 1510 1510 1509 1509 1509 1509 1509 1509 1509 1509 1509 1509 1508 1508 1506 1505 1504 1504 1503 1502 1501 1500 1499
1497 1498 1499 1500 1502 1502 1503 1503 1504 1504 1504 1505 1505 1505 1506 1506 1507 1508 1508 1508 1508 1507 1507 1507 1507 1506 1506 1506 1506 1506 1506 1506 1505 1505 1503 1501 1500 1500 1500 1499 1498 1497 1496